TimeAKDT,TemperatureF,Dew PointF,Humidity,Sea Level PressureIn,VisibilityMPH,Wind Direction,Wind SpeedMPH,Gust SpeedMPH,PrecipitationIn,Events,Conditions,WindDirDegrees,DateUTC
12:53 AM,52.0,48.0,86,29.99,10.0,Calm,Calm,-,N/A,,Overcast,0,2012-08-05 08:53:00
1:53 AM,52.0,48.0,86,29.98,10.0,Calm,Calm,-,N/A,,Overcast,0,2012-08-05 09:53:00
2:53 AM,53.1,48.9,86,29.97,10.0,Calm,Calm,-,N/A,,Overcast,0,2012-08-05 10:53:00
3:53 AM,52.0,48.9,89,29.97,10.0,Calm,Calm,-,N/A,,Overcast,0,2012-08-05 11:53:00
4:53 AM,51.1,48.0,89,29.96,10.0,Calm,Calm,-,0.00,,Overcast,0,2012-08-05 12:53:00
5:23 AM,51.8,48.2,88,29.95,10.0,Calm,Calm,-,N/A,,Overcast,0,2012-08-05 13:23:00
5:53 AM,51.1,48.0,89,29.95,10.0,Calm,Calm,-,N/A,,Overcast,0,2012-08-05 13:53:00
6:53 AM,50.0,48.9,96,29.94,10.0,Calm,Calm,-,0.00,Rain,Light Rain,0,2012-08-05 14:53:00
7:53 AM,51.1,48.9,92,29.95,10.0,Calm,Calm,-,0.00,,Overcast,0,2012-08-05 15:53:00
8:53 AM,50.0,48.9,96,29.95,10.0,Calm,Calm,-,0.00,,Overcast,0,2012-08-05 16:53:00
9:53 AM,51.1,50.0,96,29.95,8.0,SW,3.5,-,0.00,Rain,Light Rain,220,2012-08-05 17:53:00
11:00 AM,55.4,51.8,88,29.95,10.0,Calm,Calm,-,N/A,,Overcast,0,2012-08-05 19:00:00
11:24 AM,55.4,51.8,88,29.95,10.0,Calm,Calm,-,N/A,,Overcast,0,2012-08-05 19:24:00
11:53 AM,55.9,52.0,87,29.96,10.0,Calm,Calm,-,0.00,,Overcast,0,2012-08-05 19:53:00
12:20 PM,55.4,51.8,88,29.96,10.0,Calm,Calm,-,N/A,,Overcast,0,2012-08-05 20:20:00
12:53 PM,55.9,52.0,87,29.96,10.0,Calm,Calm,-,N/A,,Overcast,0,2012-08-05 20:53:00
1:53 PM,55.0,50.0,83,29.97,10.0,WSW,15.0,-,N/A,,Overcast,240,2012-08-05 21:53:00
2:53 PM,55.9,50.0,80,29.98,10.0,WSW,8.1,-,N/A,,Overcast,250,2012-08-05 22:53:00
3:53 PM,57.9,50.0,75,29.98,10.0,SSW,11.5,-,N/A,,Overcast,200,2012-08-05 23:53:00
4:53 PM,57.0,50.0,77,29.98,10.0,SSW,8.1,-,N/A,,Overcast,200,2012-08-06 00:53:00
5:53 PM,55.0,50.0,83,29.99,10.0,West,6.9,-,0.00,,Overcast,280,2012-08-06 01:53:00
6:53 PM,55.0,51.1,86,29.99,7.0,West,4.6,-,0.02,Rain,Light Rain,260,2012-08-06 02:53:00
7:42 PM,51.8,51.8,100,29.99,10.0,Calm,Calm,-,0.02,Rain,Light Rain,0,2012-08-06 03:42:00
7:53 PM,52.0,51.1,97,30.00,10.0,SW,3.5,-,0.02,Rain,Light Rain,230,2012-08-06 03:53:00
8:24 PM,53.6,51.8,94,30.00,6.0,Calm,Calm,-,0.01,Rain,Light Rain,0,2012-08-06 04:24:00
8:44 PM,53.6,51.8,94,30.01,6.0,Calm,Calm,-,0.02,Rain,Light Rain,0,2012-08-06 04:44:00
8:53 PM,53.1,51.1,93,30.00,7.0,Calm,Calm,-,0.02,Rain,Light Rain,0,2012-08-06 04:53:00
9:10 PM,53.6,51.8,94,30.00,10.0,Calm,Calm,-,0.01,Rain,Light Rain,0,2012-08-06 05:10:00
9:53 PM,54.0,52.0,93,30.00,10.0,Calm,Calm,-,0.01,Rain,Light Rain,0,2012-08-06 05:53:00
10:14 PM,53.6,51.8,94,30.01,2.0,Calm,Calm,-,0.00,Rain,Light Rain,0,2012-08-06 06:14:00
10:23 PM,53.6,51.8,94,30.01,6.0,Calm,Calm,-,0.00,Rain,Light Rain,0,2012-08-06 06:23:00
10:53 PM,52.0,51.1,97,30.01,5.0,Calm,Calm,-,0.00,Rain,Light Rain,0,2012-08-06 06:53:00
11:49 PM,53.6,51.8,94,30.01,1.8,Calm,Calm,-,0.01,Rain,Light Rain,0,2012-08-06 07:49:00
11:53 PM,51.1,51.1,100,30.01,1.0,Calm,Calm,-,0.01,Rain,Light Rain,0,2012-08-06 07:53:00